QPF
0.00 0.00 0.01 0.02 0.03 0.04 0.04 0.04 0.04 0.04 0.05 0.05 0.04 0.05 0.04 0.04 0.03 0.02 0.01 0.01 0.01 0.01 0.02 0.03 0.03 0.02 0.02 0.01 0.02 0.01 0.01 0.01 0.00 0.01 0.01 0.01 0.01 0.01 0.01 0.01 0.01 0.01 0.00
0.00 0.00 0.00 0.01 0.03 0.04 0.05 0.06 0.05 0.04 0.04 0.05 0.05 0.05 0.05 0.04 0.03 0.02 0.02 0.01 0.01 0.01 0.02 0.03 0.02 0.02 0.02 0.01 0.01 0.01 0.01 0.01 0.00 0.00 0.00 0.00 0.01 0.01 0.01 0.01 0.01 0.01 0.00
0.00 0.00 0.00 0.01 0.02 0.04 0.06 0.08 0.06 0.05 0.05 0.04 0.04 0.06 0.05 0.04 0.03 0.02 0.02 0.02 0.01 0.02 0.02 0.02 0.02 0.01 0.02 0.02 0.01 0.01 0.01 0.01 0.00 0.00 0.00 0.01 0.00 0.00 0.00 0.00 0.01 0.01 0.01
0.00 0.01 0.00 0.01 0.02 0.05 0.07 0.08 0.06 0.05 0.05 0.05 0.04 0.05 0.05 0.05 0.04 0.03 0.03 0.02 0.02 0.02 0.01 0.02 0.01 0.01 0.02 0.01 0.01 0.01 0.01 0.01 0.00 0.00 0.01 0.02 0.01 0.01 0.01 0.01 0.01 0.01 0.01
0.01 0.02 0.01 0.01 0.03 0.05 0.08 0.09 0.07 0.06 0.06 0.07 0.04 0.04 0.05 0.06 0.06 0.05 0.03 0.03 0.03 0.02 0.01 0.02 0.02 0.01 0.01 0.01 0.01 0.01 0.01 0.01 0.01 0.01 0.01 0.02 0.01 0.02 0.02 0.01 0.02 0.02 0.02
0.02 0.03 0.02 0.01 0.02 0.04 0.06 0.09 0.09 0.07 0.06 0.08 0.05 0.04 0.05 0.06 0.06 0.07 0.04 0.04 0.04 0.03 0.01 0.01 0.02 0.02 0.02 0.01 0.01 0.02 0.01 0.01 0.01 0.01 0.01 0.02 0.02 0.02 0.02 0.01 0.02 0.02 0.02
0.02 0.03 0.03 0.02 0.02 0.03 0.05 0.08 0.10 0.10 0.08 0.08 0.06 0.04 0.05 0.05 0.06 0.07 0.07 0.04 0.03 0.02 0.02 0.02 0.02 0.02 0.02 0.02 0.01 0.01 0.02 0.01 0.01 0.01 0.01 0.02 0.02 0.02 0.02 0.01 0.01 0.01 0.02
0.03 0.04 0.05 0.05 0.04 0.04 0.05 0.06 0.09 0.11 0.11 0.09 0.07 0.05 0.04 0.04 0.04 0.06 0.06 0.05 0.04 0.03 0.02 0.02 0.02 0.02 0.02 0.01 0.00 0.01 0.02 0.00 0.00 0.01 0.01 0.02 0.02 0.02 0.02 0.01 0.01 0.01 0.02
0.05 0.06 0.07 0.07 0.06 0.07 0.07 0.06 0.09 0.11 0.12 0.10 0.08 0.07 0.04 0.04 0.04 0.04 0.05 0.04 0.04 0.04 0.03 0.02 0.03 0.02 0.02 0.01 0.00 0.01 0.01 0.00 0.00 0.01 0.01 0.01 0.01 0.02 0.01 0.01 0.01 0.00 0.00
0.06 0.08 0.10 0.09 0.07 0.07 0.08 0.09 0.09 0.11 0.12 0.13 0.12 0.08 0.05 0.04 0.04 0.04 0.03 0.04 0.04 0.04 0.03 0.03 0.04 0.02 0.01 0.01 0.01 0.01 0.01 0.00 0.00 0.01 0.01 0.01 0.01 0.01 0.01 0.00 0.01 0.01 0.01
0.07 0.07 0.08 0.10 0.09 0.09 0.09 0.11 0.10 0.10 0.13 0.15 0.14 0.09 0.05 0.05 0.04 0.03 0.03 0.03 0.03 0.03 0.03 0.04 0.03 0.03 0.02 0.01 0.01 0.01 0.01 0.00 0.01 0.01 0.02 0.01 0.01 0.01 0.01 0.01 0.01 0.01 0.01
0.06 0.07 0.07 0.09 0.13 0.13 0.12 0.10 0.13 0.13 0.13 0.15 0.14 0.11 0.08 0.05 0.04 0.03 0.03 0.02 0.02 0.02 0.03 0.03 0.03 0.03 0.02 0.02 0.02 0.02 0.02 0.01 0.01 0.02 0.02 0.02 0.01 0.01 0.01 0.01 0.01 0.01 0.01
0.07 0.08 0.09 0.10 0.13 0.17 0.16 0.12 0.13 0.18 0.18 0.19 0.18 0.15 0.11 0.08 0.06 0.03 0.02 0.02 0.02 0.02 0.02 0.03 0.04 0.03 0.02 0.02 0.03 0.03 0.02 0.02 0.02 0.02 0.02 0.02 0.01 0.01 0.01 0.02 0.02 0.01 0.01
0.09 0.09 0.10 0.11 0.13 0.19 0.21 0.17 0.11 0.18 0.22 0.21 0.22 0.23 0.17 0.12 0.08 0.04 0.02 0.01 0.02 0.02 0.02 0.02 0.03 0.04 0.03 0.02 0.02 0.03 0.03 0.03 0.02 0.03 0.03 0.02 0.01 0.01 0.02 0.02 0.02 0.02 0.02
0.12 0.10 0.10 0.11 0.14 0.19 0.25 0.24 0.14 0.16 0.22 0.21 0.21 0.22 0.20 0.14 0.09 0.06 0.03 0.01 0.01 0.01 0.02 0.02 0.03 0.03 0.04 0.04 0.03 0.04 0.04 0.04 0.03 0.03 0.03 0.03 0.02 0.02 0.02 0.03 0.02 0.02 0.01
0.13 0.13 0.11 0.10 0.13 0.19 0.29 0.30 0.18 0.15 0.18 0.21 0.21 0.18 0.17 0.13 0.07 0.06 0.04 0.02 0.01 0.01 0.01 0.01 0.02 0.02 0.04 0.04 0.04 0.05 0.05 0.05 0.04 0.03 0.03 0.04 0.04 0.02 0.02 0.02 0.01 0.01 0.01
0.10 0.15 0.12 0.09 0.12 0.17 0.29 0.32 0.22 0.17 0.15 0.17 0.19 0.17 0.16 0.13 0.07 0.04 0.04 0.02 0.02 0.02 0.01 0.01 0.01 0.01 0.02 0.03 0.04 0.05 0.06 0.07 0.06 0.05 0.05 0.04 0.04 0.03 0.02 0.01 0.01 0.00 0.01
0.11 0.14 0.14 0.11 0.12 0.14 0.22 0.28 0.25 0.21 0.17 0.15 0.16 0.15 0.14 0.13 0.09 0.05 0.04 0.03 0.02 0.02 0.02 0.01 0.01 0.01 0.01 0.02 0.03 0.04 0.06 0.08 0.08 0.07 0.07 0.05 0.04 0.02 0.02 0.01 0.00 0.00 0.00
0.11 0.15 0.17 0.13 0.12 0.14 0.16 0.21 0.22 0.21 0.18 0.18 0.16 0.14 0.12 0.11 0.09 0.05 0.03 0.03 0.03 0.02 0.02 0.02 0.01 0.01 0.01 0.01 0.02 0.03 0.06 0.09 0.11 0.11 0.10 0.08 0.05 0.02 0.01 0.01 0.00 0.00 0.00
0.12 0.16 0.19 0.17 0.14 0.16 0.18 0.16 0.18 0.17 0.15 0.17 0.17 0.12 0.10 0.09 0.07 0.05 0.03 0.02 0.02 0.02 0.02 0.02 0.01 0.01 0.01 0.01 0.02 0.03 0.05 0.09 0.11 0.10 0.10 0.09 0.07 0.04 0.02 0.01 0.00 0.00 0.00
0.12 0.17 0.19 0.22 0.20 0.17 0.18 0.16 0.14 0.12 0.11 0.12 0.15 0.14 0.09 0.07 0.06 0.05 0.04 0.03 0.02 0.01 0.01 0.01 0.01 0.01 0.01 0.01 0.01 0.03 0.04 0.05 0.07 0.09 0.08 0.08 0.06 0.05 0.03 0.01 0.01 0.00 0.00
0.09 0.14 0.20 0.23 0.24 0.21 0.19 0.15 0.12 0.09 0.09 0.10 0.11 0.11 0.09 0.07 0.06 0.04 0.04 0.03 0.02 0.02 0.01 0.01 0.01 0.01 0.01 0.01 0.01 0.02 0.03 0.04 0.04 0.07 0.06 0.05 0.04 0.03 0.03 0.02 0.01 0.00 0.00
0.06 0.10 0.17 0.21 0.23 0.24 0.22 0.19 0.12 0.07 0.07 0.09 0.10 0.10 0.08 0.07 0.06 0.05 0.04 0.03 0.03 0.02 0.01 0.01 0.01 0.01 0.01 0.01 0.01 0.01 0.01 0.02 0.03 0.04 0.05 0.03 0.02 0.02 0.03 0.03 0.02 0.01 0.00
0.06 0.08 0.12 0.18 0.20 0.20 0.19 0.18 0.15 0.10 0.06 0.06 0.08 0.09 0.09 0.07 0.07 0.05 0.04 0.03 0.02 0.02 0.02 0.01 0.00 0.01 0.01 0.01 0.01 0.01 0.01 0.01 0.01 0.02 0.03 0.03 0.01 0.01 0.02 0.04 0.04 0.02 0.01
0.07 0.08 0.09 0.12 0.16 0.17 0.16 0.15 0.12 0.09 0.06 0.05 0.05 0.06 0.08 0.07 0.06 0.05 0.04 0.04 0.03 0.02 0.03 0.02 0.01 0.01 0.01 0.01 0.01 0.01 0.01 0.00 0.01 0.01 0.02 0.02 0.02 0.01 0.01 0.02 0.04 0.05 0.03
0.05 0.06 0.07 0.09 0.11 0.15 0.15 0.12 0.11 0.08 0.04 0.03 0.04 0.04 0.05 0.05 0.05 0.05 0.04 0.04 0.04 0.03 0.03 0.03 0.02 0.01 0.01 0.01 0.01 0.01 0.01 0.01 0.00 0.01 0.01 0.01 0.01 0.01 0.01 0.01 0.01 0.04 0.06
MSLP
1010.47 1010.41 1010.42 1010.52 1010.75 1011.09 1011.48 1011.89 1012.25 1012.54 1012.74 1012.88 1013.00 1013.14 1013.34 1013.62 1013.95 1014.31 1014.65 1014.94 1015.16 1015.31 1015.42 1015.51 1015.62 1015.76 1015.93 1016.11 1016.29 1016.44 1016.54 1016.60 1016.63 1016.65 1016.69 1016.76 1016.86 1016.97 1017.07 1017.14 1017.15 1017.12 1017.05
1010.69 1010.54 1010.48 1010.55 1010.77 1011.12 1011.54 1011.98 1012.38 1012.69 1012.90 1013.05 1013.17 1013.32 1013.52 1013.79 1014.12 1014.48 1014.82 1015.12 1015.36 1015.53 1015.67 1015.79 1015.93 1016.09 1016.28 1016.47 1016.63 1016.76 1016.83 1016.86 1016.86 1016.86 1016.88 1016.94 1017.04 1017.15 1017.26 1017.33 1017.34 1017.31 1017.26
1010.84 1010.59 1010.45 1010.48 1010.69 1011.06 1011.51 1011.99 1012.43 1012.78 1013.02 1013.19 1013.33 1013.47 1013.66 1013.92 1014.22 1014.56 1014.89 1015.18 1015.42 1015.62 1015.79 1015.95 1016.13 1016.33 1016.54 1016.73 1016.89 1017.00 1017.04 1017.04 1017.02 1016.99 1017.00 1017.06 1017.16 1017.27 1017.39 1017.47 1017.50 1017.49 1017.45
1010.92 1010.58 1010.38 1010.37 1010.57 1010.94 1011.42 1011.93 1012.41 1012.79 1013.08 1013.28 1013.43 1013.58 1013.76 1013.99 1014.27 1014.57 1014.87 1015.15 1015.40 1015.61 1015.82 1016.02 1016.25 1016.48 1016.71 1016.92 1017.08 1017.17 1017.20 1017.17 1017.12 1017.09 1017.09 1017.14 1017.24 1017.36 1017.48 1017.58 1017.64 1017.65 1017.64
1010.95 1010.55 1010.31 1010.27 1010.46 1010.82 1011.30 1011.83 1012.33 1012.75 1013.07 1013.30 1013.48 1013.64 1013.82 1014.03 1014.28 1014.56 1014.83 1015.10 1015.35 1015.59 1015.82 1016.07 1016.33 1016.59 1016.85 1017.07 1017.22 1017.30 1017.31 1017.27 1017.21 1017.17 1017.16 1017.21 1017.31 1017.44 1017.57 1017.68 1017.76 1017.80 1017.82
1010.99 1010.57 1010.31 1010.26 1010.42 1010.76 1011.23 1011.74 1012.24 1012.66 1013.01 1013.27 1013.47 1013.66 1013.85 1014.07 1014.32 1014.58 1014.85 1015.10 1015.36 1015.61 1015.86 1016.14 1016.42 1016.71 1016.98 1017.20 1017.35 1017.42 1017.42 1017.38 1017.32 1017.27 1017.27 1017.32 1017.41 1017.54 1017.67 1017.79 1017.89 1017.95 1017.99
1011.07 1010.67 1010.42 1010.36 1010.50 1010.81 1011.22 1011.69 1012.15 1012.56 1012.91 1013.19 1013.43 1013.66 1013.89 1014.14 1014.41 1014.68 1014.95 1015.22 1015.47 1015.73 1016.00 1016.28 1016.58 1016.86 1017.12 1017.34 1017.48 1017.54 1017.55 1017.51 1017.45 1017.42 1017.42 1017.47 1017.57 1017.69 1017.81 1017.92 1018.02 1018.09 1018.15
1011.21 1010.86 1010.65 1010.60 1010.71 1010.96 1011.30 1011.70 1012.09 1012.46 1012.79 1013.09 1013.37 1013.65 1013.95 1014.25 1014.57 1014.87 1015.17 1015.44 1015.71 1015.97 1016.23 1016.51 1016.78 1017.05 1017.30 1017.49 1017.62 1017.68 1017.69 1017.67 1017.64 1017.62 1017.64 1017.69 1017.78 1017.89 1017.99 1018.08 1018.16 1018.22 1018.28
1011.41 1011.14 1010.97 1010.93 1011.01 1011.19 1011.44 1011.73 1012.03 1012.34 1012.64 1012.95 1013.28 1013.63 1014.00 1014.38 1014.76 1015.13 1015.46 1015.76 1016.03 1016.28 1016.53 1016.78 1017.02 1017.26 1017.47 1017.64 1017.75 1017.82 1017.85 1017.85 1017.85 1017.87 1017.91 1017.97 1018.06 1018.14 1018.21 1018.27 1018.32 1018.35 1018.40
1011.63 1011.44 1011.32 1011.28 1011.32 1011.42 1011.57 1011.75 1011.95 1012.18 1012.45 1012.77 1013.14 1013.55 1014.01 1014.48 1014.95 1015.38 1015.75 1016.08 1016.36 1016.60 1016.83 1017.04 1017.25 1017.44 1017.62 1017.76 1017.87 1017.94 1017.99 1018.04 1018.08 1018.14 1018.21 1018.29 1018.37 1018.43 1018.47 1018.48 1018.49 1018.48 1018.50
1011.81 1011.68 1011.60 1011.57 1011.57 1011.59 1011.63 1011.70 1011.80 1011.96 1012.19 1012.51 1012.92 1013.40 1013.95 1014.51 1015.05 1015.54 1015.97 1016.33 1016.62 1016.85 1017.06 1017.24 1017.41 1017.56 1017.71 1017.84 1017.95 1018.04 1018.13 1018.22 1018.32 1018.42 1018.53 1018.63 1018.71 1018.75 1018.75 1018.72 1018.68 1018.63 1018.61
1011.90 1011.82 1011.76 1011.72 1011.67 1011.63 1011.58 1011.55 1011.56 1011.66 1011.85 1012.17 1012.61 1013.16 1013.77 1014.40 1015.02 1015.58 1016.05 1016.44 1016.74 1016.98 1017.17 1017.33 1017.48 1017.62 1017.75 1017.88 1018.00 1018.13 1018.26 1018.41 1018.56 1018.72 1018.87 1018.99 1019.07 1019.10 1019.07 1019.00 1018.91 1018.82 1018.76
1011.85 1011.79 1011.75 1011.70 1011.62 1011.52 1011.40 1011.30 1011.25 1011.29 1011.46 1011.78 1012.24 1012.82 1013.48 1014.17 1014.84 1015.45 1015.96 1016.38 1016.71 1016.97 1017.16 1017.33 1017.48 1017.62 1017.76 1017.91 1018.07 1018.24 1018.42 1018.62 1018.83 1019.04 1019.22 1019.37 1019.46 1019.47 1019.42 1019.33 1019.20 1019.08 1018.99
1011.66 1011.61 1011.57 1011.52 1011.43 1011.30 1011.14 1011.00 1010.91 1010.92 1011.07 1011.38 1011.84 1012.43 1013.11 1013.83 1014.53 1015.17 1015.72 1016.18 1016.54 1016.83 1017.06 1017.26 1017.44 1017.62 1017.80 1017.99 1018.19 1018.41 1018.65 1018.90 1019.15 1019.40 1019.62 1019.78 1019.87 1019.89 1019.83 1019.71 1019.57 1019.42 1019.31
1011.36 1011.32 1011.29 1011.25 1011.16 1011.04 1010.88 1010.73 1010.63 1010.63 1010.76 1011.05 1011.50 1012.07 1012.74 1013.45 1014.16 1014.81 1015.39 1015.87 1016.28 1016.62 1016.91 1017.17 1017.42 1017.66 1017.90 1018.15 1018.41 1018.68 1018.96 1019.26 1019.55 1019.82 1020.05 1020.23 1020.33 1020.34 1020.29 1020.17 1020.02 1019.87 1019.75
1011.04 1011.01 1011.00 1010.98 1010.94 1010.84 1010.72 1010.60 1010.51 1010.51 1010.63 1010.89 1011.30 1011.83 1012.46 1013.13 1013.80 1014.45 1015.03 1015.55 1016.01 1016.42 1016.79 1017.13 1017.46 1017.78 1018.10 1018.42 1018.73 1019.06 1019.38 1019.70 1020.01 1020.30 1020.53 1020.71 1020.82 1020.84 1020.79 1020.68 1020.54 1020.39 1020.27
1010.78 1010.77 1010.79 1010.83 1010.84 1010.81 1010.75 1010.68 1010.62 1010.63 1010.74 1010.97 1011.32 1011.78 1012.33 1012.93 1013.55 1014.16 1014.75 1015.29 1015.80 1016.27 1016.72 1017.16 1017.58 1017.99 1018.39 1018.78 1019.15 1019.51 1019.86 1020.20 1020.51 1020.79 1021.03 1021.20 1021.30 1021.34 1021.30 1021.21 1021.09 1020.96 1020.86
1010.66 1010.67 1010.75 1010.84 1010.93 1010.98 1011.00 1010.99 1010.99 1011.02 1011.12 1011.30 1011.58 1011.96 1012.41 1012.92 1013.47 1014.02 1014.58 1015.13 1015.67 1016.21 1016.74 1017.26 1017.77 1018.26 1018.73 1019.18 1019.59 1019.98 1020.35 1020.68 1020.99 1021.25 1021.48 1021.65 1021.75 1021.79 1021.78 1021.72 1021.63 1021.53 1021.45
1010.72 1010.77 1010.89 1011.04 1011.20 1011.34 1011.44 1011.51 1011.57 1011.63 1011.72 1011.86 1012.07 1012.35 1012.70 1013.11 1013.56 1014.05 1014.56 1015.10 1015.66 1016.23 1016.81 1017.40 1017.97 1018.53 1019.05 1019.54 1019.98 1020.39 1020.75 1021.08 1021.36 1021.61 1021.82 1021.99 1022.10 1022.16 1022.18 1022.15 1022.10 1022.04 1021.98
1010.96 1011.03 1011.19 1011.40 1011.63 1011.84 1012.02 1012.17 1012.28 1012.37 1012.47 1012.58 1012.73 1012.92 1013.17 1013.47 1013.82 1014.23 1014.69 1015.19 1015.74 1016.32 1016.93 1017.54 1018.16 1018.74 1019.30 1019.80 1020.25 1020.65 1021.00 1021.31 1021.58 1021.81 1022.01 1022.17 1022.30 1022.39 1022.44 1022.47 1022.47 1022.45 1022.43
1011.34 1011.43 1011.60 1011.84 1012.11 1012.38 1012.63 1012.84 1013.01 1013.15 1013.26 1013.36 1013.47 1013.59 1013.75 1013.96 1014.22 1014.54 1014.92 1015.38 1015.89 1016.45 1017.05 1017.66 1018.27 1018.86 1019.41 1019.91 1020.35 1020.73 1021.06 1021.35 1021.60 1021.82 1022.01 1022.18 1022.33 1022.45 1022.55 1022.62 1022.68 1022.71 1022.74
1011.80 1011.87 1012.04 1012.28 1012.56 1012.87 1013.16 1013.43 1013.67 1013.86 1014.00 1014.11 1014.20 1014.29 1014.39 1014.52 1014.69 1014.93 1015.24 1015.62 1016.08 1016.59 1017.15 1017.73 1018.31 1018.87 1019.39 1019.86 1020.27 1020.63 1020.94 1021.20 1021.43 1021.64 1021.84 1022.02 1022.19 1022.34 1022.49 1022.62 1022.74 1022.83 1022.91
1012.25 1012.30 1012.44 1012.65 1012.93 1013.24 1013.56 1013.88 1014.17 1014.42 1014.62 1014.76 1014.87 1014.94 1015.01 1015.09 1015.21 1015.37 1015.60 1015.91 1016.29 1016.74 1017.23 1017.75 1018.28 1018.79 1019.27 1019.70 1020.07 1020.40 1020.68 1020.92 1021.14 1021.34 1021.54 1021.73 1021.92 1022.12 1022.30 1022.49 1022.66 1022.81 1022.93
1012.65 1012.67 1012.76 1012.93 1013.18 1013.48 1013.82 1014.17 1014.51 1014.82 1015.08 1015.28 1015.43 1015.52 1015.59 1015.64 1015.71 1015.82 1015.99 1016.22 1016.53 1016.90 1017.32 1017.77 1018.23 1018.68 1019.11 1019.49 1019.83 1020.12 1020.37 1020.60 1020.80 1021.00 1021.20 1021.40 1021.61 1021.83 1022.05 1022.27 1022.48 1022.67 1022.84
1012.97 1012.96 1013.01 1013.14 1013.34 1013.62 1013.96 1014.34 1014.73 1015.10 1015.42 1015.69 1015.88 1016.01 1016.09 1016.14 1016.19 1016.25 1016.37 1016.54 1016.77 1017.07 1017.42 1017.81 1018.21 1018.61 1018.98 1019.32 1019.63 1019.89 1020.12 1020.33 1020.52 1020.71 1020.90 1021.10 1021.32 1021.54 1021.78 1022.01 1022.25 1022.46 1022.66
1013.23 1013.20 1013.22 1013.31 1013.48 1013.74 1014.07 1014.46 1014.89 1015.30 1015.68 1016.00 1016.25 1016.42 1016.52 1016.58 1016.61 1016.65 1016.72 1016.84 1017.02 1017.27 1017.56 1017.89 1018.25 1018.60 1018.94 1019.26 1019.54 1019.78 1020.00 1020.19 1020.37 1020.54 1020.72 1020.91 1021.12 1021.33 1021.56 1021.79 1022.01 1022.23 1022.43
Thickness
5729 5731 5729 5729 5729 5730 5731 5731 5731 5731 5731 5731 5731 5731 5730 5730 5729 5729 5729 5729 5729 5729 5729 5729 5728 5728 5728 5728 5727 5727 5727 5727 5726 5726 5725 5725 5724 5723 5723 5722 5721 5720 5719
5726 5726 5725 5725 5725 5726 5726 5727 5727 5727 5727 5727 5727 5727 5727 5726 5726 5726 5726 5726 5726 5726 5726 5726 5726 5725 5725 5725 5724 5724 5724 5724 5723 5723 5722 5722 5721 5720 5720 5719 5718 5717 5716
5721 5720 5720 5720 5720 5721 5722 5722 5723 5723 5723 5724 5724 5724 5724 5723 5723 5723 5723 5723 5723 5723 5723 5722 5722 5722 5722 5721 5721 5721 5721 5721 5721 5721 5720 5719 5718 5717 5717 5716 5715 5714 5713
5714 5714 5714 5714 5715 5716 5717 5717 5718 5719 5719 5720 5720 5720 5719 5719 5719 5719 5719 5719 5719 5719 5719 5719 5719 5719 5718 5718 5718 5718 5718 5719 5719 5719 5718 5717 5715 5714 5713 5713 5712 5711 5710
5706 5707 5707 5708 5709 5710 5711 5712 5713 5714 5715 5715 5716 5715 5715 5715 5715 5715 5715 5715 5715 5715 5715 5715 5715 5715 5715 5715 5715 5715 5715 5716 5716 5716 5716 5714 5712 5711 5710 5709 5708 5708 5706
5697 5699 5700 5701 5702 5704 5705 5707 5708 5709 5710 5711 5711 5711 5711 5711 5711 5711 5711 5711 5711 5711 5711 5711 5711 5711 5711 5711 5711 5712 5712 5713 5713 5713 5712 5711 5709 5708 5707 5706 5705 5704 5703
5688 5690 5692 5694 5696 5697 5699 5701 5703 5704 5704 5705 5705 5706 5706 5706 5706 5706 5706 5707 5707 5707 5707 5707 5707 5707 5707 5707 5707 5708 5709 5710 5710 5710 5708 5707 5705 5704 5703 5702 5701 5700 5699
5680 5682 5684 5686 5688 5690 5692 5695 5697 5698 5699 5699 5700 5701 5701 5701 5702 5702 5702 5702 5702 5703 5703 5703 5703 5703 5703 5703 5703 5704 5705 5706 5707 5706 5704 5703 5701 5700 5699 5698 5697 5696 5695
5671 5673 5675 5677 5680 5683 5685 5687 5690 5692 5693 5694 5695 5695 5696 5697 5697 5697 5697 5697 5698 5698 5698 5699 5699 5699 5699 5699 5699 5700 5702 5703 5703 5702 5700 5698 5697 5696 5695 5694 5693 5692 5690
5661 5664 5666 5669 5671 5674 5676 5679 5682 5684 5686 5687 5688 5689 5690 5691 5691 5692 5692 5692 5693 5693 5693 5694 5694 5695 5695 5695 5695 5697 5698 5698 5698 5697 5695 5693 5692 5691 5690 5689 5688 5687 5686
5650 5654 5657 5661 5663 5666 5668 5671 5673 5676 5678 5680 5681 5683 5684 5685 5685 5685 5686 5687 5688 5689 5689 5689 5690 5690 5690 5691 5692 5693 5694 5694 5693 5691 5690 5689 5688 5687 5685 5684 5683 5682 5681
5638 5644 5648 5652 5655 5658 5660 5662 5664 5667 5669 5672 5674 5676 5678 5679 5679 5679 5680 5681 5682 5683 5684 5684 5685 5686 5686 5687 5688 5689 5689 5689 5688 5686 5684 5684 5683 5682 5680 5679 5678 5677 5676
5630 5634 5639 5643 5646 5649 5651 5654 5656 5659 5662 5665 5668 5670 5672 5672 5672 5673 5674 5674 5676 5677 5678 5679 5680 5682 5682 5683 5683 5684 5684 5684 5683 5681 5679 5679 5678 5677 5676 5674 5673 5672 5671
5621 5625 5629 5633 5637 5640 5643 5645 5648 5651 5655 5658 5661 5664 5665 5665 5666 5667 5668 5669 5671 5672 5674 5675 5676 5678 5678 5678 5679 5679 5679 5679 5677 5675 5673 5673 5672 5672 5670 5669 5668 5667 5666
5612 5616 5620 5624 5628 5631 5635 5637 5640 5644 5647 5651 5654 5657 5659 5659 5660 5661 5663 5665 5666 5667 5669 5671 5672 5673 5674 5674 5674 5674 5674 5673 5671 5669 5667 5667 5666 5665 5664 5663 5662 5661 5660
5604 5607 5610 5614 5619 5623 5626 5629 5633 5636 5639 5643 5647 5651 5654 5653 5654 5656 5657 5659 5661 5662 5664 5666 5667 5668 5668 5668 5668 5668 5667 5667 5665 5663 5661 5660 5659 5658 5657 5656 5655 5655 5653
5597 5599 5602 5606 5610 5614 5618 5621 5625 5628 5631 5635 5639 5643 5646 5647 5648 5650 5651 5653 5655 5656 5658 5660 5661 5661 5661 5661 5661 5661 5661 5660 5659 5657 5655 5653 5652 5651 5650 5649 5648 5647 5646
5591 5592 5594 5598 5601 5605 5609 5613 5617 5620 5623 5626 5630 5635 5639 5640 5641 5643 5645 5647 5649 5651 5652 5653 5654 5653 5653 5653 5653 5653 5653 5652 5651 5650 5648 5647 5645 5643 5642 5641 5640 5639 5638
5584 5584 5586 5588 5591 5596 5600 5603 5607 5610 5614 5617 5621 5626 5631 5632 5635 5637 5639 5641 5643 5644 5646 5647 5646 5646 5645 5645 5645 5645 5644 5643 5643 5642 5641 5639 5638 5636 5634 5632 5631 5630 5629
5577 5577 5577 5580 5582 5587 5590 5594 5598 5601 5605 5609 5612 5617 5622 5625 5628 5630 5632 5635 5636 5637 5638 5639 5639 5639 5638 5637 5638 5636 5635 5635 5635 5634 5633 5631 5629 5628 5626 5625 5623 5622 5621
5569 5569 5570 5571 5574 5578 5581 5586 5589 5592 5596 5600 5603 5608 5614 5618 5620 5623 5626 5628 5629 5630 5631 5632 5632 5631 5629 5630 5628 5626 5626 5626 5626 5625 5624 5623 5621 5620 5618 5616 5615 5614 5612
5563 5563 5564 5565 5568 5572 5574 5578 5581 5584 5588 5593 5596 5600 5605 5610 5612 5615 5617 5621 5622 5623 5624 5625 5625 5623 5622 5623 5621 5619 5616 5615 5616 5618 5616 5614 5613 5612 5610 5608 5607 5606 5604
5557 5558 5560 5559 5562 5564 5566 5570 5573 5576 5579 5584 5588 5592 5597 5602 5605 5607 5610 5613 5615 5616 5617 5617 5618 5617 5615 5615 5616 5615 5612 5610 5607 5607 5608 5607 5605 5604 5602 5600 5599 5597 5596
5553 5553 5554 5555 5557 5558 5559 5563 5566 5569 5572 5576 5581 5586 5590 5594 5597 5599 5602 5605 5607 5608 5609 5610 5610 5610 5609 5607 5608 5608 5607 5607 5601 5597 5597 5598 5597 5595 5594 5593 5591 5589 5587
5550 5549 5550 5550 5552 5553 5554 5557 5560 5563 5567 5570 5575 5579 5582 5586 5589 5592 5594 5596 5598 5600 5601 5601 5601 5602 5602 5601 5600 5599 5599 5598 5597 5592 5588 5586 5586 5586 5585 5584 5582 5580 5578
5547 5546 5546 5546 5547 5549 5551 5554 5555 5559 5563 5565 5569 5571 5574 5577 5581 5584 5586 5588 5589 5591 5591 5592 5592 5593 5593 5592 5591 5591 5590 5589 5587 5585 5581 5578 5576 5576 5577 5575 5573 5571 5568